EHI
0 0 0 0 0 0 0 0 0 0 0 0 0 0 0 0 0 0 0 0 0 0 1 1 0 0 0 0 0 0 0 0 0 0 0 0 0 0 0 0 0 0 0 0
0 0 0 0 0 0 0 0 0 0 0 0 0 0 0 0 0 0 0 0 0 0 1 1 0 0 0 0 0 0 0 0 0 0 0 0 0 0 0 0 0 0 0 0
0 0 0 0 0 0 0 0 0 0 0 0 0 0 0 0 0 0 0 0 0 0 1 1 0 1 2 1 1 0 0 0 0 0 0 0 0 0 0 0 0 0 0 0
0 0 0 0 0 0 0 0 0 0 0 0 0 0 0 0 0 0 0 0 0 0 0 0 0 2 3 2 1 0 0 0 0 0 0 0 0 0 0 0 0 0 0 0
0 0 0 0 0 0 0 0 0 0 0 0 0 0 0 0 0 0 0 0 0 0 0 0 0 1 2 2 1 0 0 0 0 0 0 0 0 0 0 0 0 0 0 0
0 0 0 0 0 0 0 0 0 0 0 0 0 0 0 0 0 0 0 0 0 0 0 0 0 0 1 2 1 0 0 0 0 0 0 0 0 0 0 0 0 0 0 0
0 0 0 0 0 0 0 0 0 0 0 0 0 0 0 0 0 0 0 0 0 0 0 0 0 0 0 1 1 0 0 0 0 0 0 0 0 0 0 0 0 0 0 0
0 0 0 0 0 0 0 0 0 0 0 0 0 0 0 0 0 0 0 0 0 0 0 0 0 0 0 0 0 0 0 0 0 0 0 0 0 0 0 0 0 0 0 0
0 0 0 0 0 0 0 0 0 0 0 0 0 0 0 0 0 0 0 0 0 0 0 0 0 0 0 0 0 0 0 0 0 0 0 0 0 0 0 0 0 0 0 0
0 0 0 0 0 0 0 0 0 0 0 0 0 0 0 0 0 0 0 0 0 0 0 0 0 0 0 0 0 0 0 0 0 0 0 0 0 0 0 0 0 0 0 0
0 0 0 0 0 0 0 0 0 0 0 0 0 0 0 0 0 0 0 0 0 0 0 0 0 0 0 0 0 0 0 0 0 0 0 0 0 0 0 0 0 0 0 0
0 0 0 0 0 0 0 0 0 0 0 0 0 0 0 0 0 0 0 0 0 0 0 0 0 0 0 0 0 0 0 0 0 0 0 0 0 0 0 0 0 0 0 0
0 0 0 0 0 0 0 0 0 0 0 0 0 0 0 0 0 0 0 0 0 0 0 0 0 0 0 0 0 0 0 0 0 0 0 0 0 0 0 0 0 0 0 0
0 0 0 0 0 0 0 0 0 0 0 0 0 0 0 0 0 0 0 0 0 0 0 0 0 0 0 0 0 0 0 0 0 0 0 0 0 0 0 0 0 0 0 0
0 0 0 0 0 0 0 0 0 0 0 0 0 0 0 0 0 0 0 0 0 0 0 0 0 0 0 0 0 0 0 0 0 0 0 0 0 0 0 0 0 0 0 0
0 0 0 0 0 0 0 0 0 0 0 0 0 0 0 0 0 0 0 0 0 0 0 0 0 0 0 0 0 0 0 0 0 0 0 0 0 0 0 0 0 0 0 0
0 0 0 0 0 0 0 0 0 0 0 0 0 0 0 0 0 0 0 0 0 0 0 0 0 0 0 0 0 0 0 0 0 0 0 0 0 0 0 0 0 0 0 0
0 0 0 0 0 0 0 0 0 0 0 0 0 0 0 0 0 0 0 0 0 0 0 0 0 0 0 0 0 0 0 0 0 0 0 0 0 0 0 0 0 0 0 0
0 0 0 0 0 0 0 0 0 0 0 0 0 0 0 0 0 0 0 0 0 0 0 0 0 0 0 0 0 0 0 0 0 0 0 0 0 0 0 0 0 0 0 0
0 0 0 0 0 0 0 0 0 0 0 0 0 0 0 0 0 0 0 0 0 0 0 0 0 0 0 0 0 0 0 0 0 0 0 0 0 0 0 0 0 0 0 0
0 0 0 0 0 0 0 0 0 0 0 0 0 0 0 0 0 0 0 0 0 0 0 0 0 0 0 0 0 0 0 0 0 0 0 0 0 0 0 0 0 0 0 0
0 0 0 0 0 0 0 0 0 0 0 0 0 0 0 0 0 0 0 0 0 0 0 0 0 0 0 0 0 0 0 0 0 0 0 0 0 0 0 0 0 0 0 0
0 0 0 0 0 0 0 0 0 0 0 0 0 0 0 0 0 0 0 0 0 0 0 0 0 0 0 0 0 0 0 0 0 0 0 0 0 0 0 0 0 0 0 0
0 0 0 0 0 0 0 0 0 0 0 0 0 0 0 0 0 0 0 0 0 0 0 0 0 0 0 0 0 0 0 0 0 0 0 0 0 0 0 0 0 0 0 0
0 0 0 0 0 0 0 0 0 0 0 0 0 0 0 0 0 0 0 0 0 0 0 0 0 0 0 0 0 0 0 0 0 0 0 0 0 0 0 0 0 0 0 0
0 0 0 0 0 0 0 0 0 0 0 0 0 0 0 0 0 0 0 0 0 0 0 0 0 0 0 0 0 0 0 0 0 0 0 0 0 0 0 0 0 0 0 0
Wind_Speed
7 7 8 9 5 1 4 6 6 5 4 4 3 1 1 2 2 3 4 5 6 6 6 6 6 7 8 8 8 8 8 8 6 4 2 2 1 1 1 1 2 3 4 5
8 7 6 5 4 3 5 6 7 6 3 2 2 2 4 4 2 1 0 2 3 4 5 6 7 8 9 9 10 10 9 8 7 3 2 1 1 2 1 1 1 2 3 4
6 6 6 6 6 5 5 5 6 6 5 3 3 7 7 6 6 5 3 2 1 1 3 4 6 7 8 9 10 8 8 8 7 6 3 2 1 2 2 2 1 2 3 3
3 5 7 7 5 4 5 3 4 5 7 5 2 8 8 6 8 8 7 5 4 2 0 1 3 5 7 8 8 8 8 8 7 7 5 4 2 2 2 2 1 2 2 3
5 6 7 5 3 2 5 3 3 4 5 7 3 6 8 6 8 8 8 7 6 4 2 1 1 2 4 5 6 7 7 7 7 6 5 5 4 3 2 2 2 3 1 2
5 4 2 2 3 2 6 6 5 4 5 6 3 4 7 5 6 6 7 8 7 6 4 3 2 1 3 4 5 6 7 7 7 7 7 6 5 4 3 3 3 3 1 2
7 6 4 3 6 5 6 6 6 6 5 6 3 2 7 6 5 6 7 8 8 7 6 5 4 2 2 3 5 6 8 8 8 8 7 7 6 5 5 4 2 3 2 2
8 8 5 4 2 4 4 5 3 4 6 7 4 5 7 6 5 5 6 8 9 9 8 7 6 3 2 2 4 5 7 7 7 7 7 6 6 4 3 3 3 3 3 2
6 7 5 2 0 1 4 2 3 2 5 6 7 7 8 6 6 7 8 10 11 10 9 8 7 5 3 1 2 4 5 6 6 7 6 6 6 6 5 5 4 3 3 2
2 7 6 5 5 4 3 2 3 4 6 6 7 7 6 5 5 6 8 10 10 10 9 9 8 6 4 2 1 2 4 4 5 5 5 5 6 6 5 5 5 5 4 3
3 6 7 6 2 3 4 3 2 1 1 3 6 5 5 3 4 5 7 8 8 9 9 9 7 7 6 4 2 1 2 3 3 4 5 6 5 6 6 6 5 5 5 5
1 3 6 4 3 2 1 0 3 3 3 1 2 6 5 4 4 5 6 7 7 8 8 8 8 8 7 6 4 2 1 1 2 4 4 6 5 6 7 6 6 7 6 6
1 5 6 7 6 5 3 2 1 1 3 4 4 6 6 6 6 5 6 6 7 8 9 9 9 9 8 7 6 4 3 2 2 3 4 5 5 6 7 7 6 7 6 6
4 4 5 3 1 4 5 5 4 6 5 4 4 5 7 7 6 6 6 6 7 8 9 9 9 9 9 8 7 6 4 3 2 2 4 5 5 6 7 7 6 7 7 7
5 4 2 1 2 2 4 6 7 7 6 6 4 4 6 7 7 7 6 6 7 8 9 9 9 9 9 9 8 8 6 4 3 2 3 4 5 5 6 6 6 7 7 8
3 3 4 4 3 3 6 7 8 8 6 6 5 4 4 7 8 8 7 6 7 7 7 8 8 9 10 9 9 8 7 6 4 3 4 4 5 5 6 7 7 7 8 8
3 6 6 5 3 5 10 9 11 9 7 7 8 4 10 10 9 8 7 6 6 6 6 6 7 8 8 9 9 9 8 7 6 5 5 5 6 6 7 7 7 8 8 9
4 6 4 4 5 9 2 4 2 5 5 5 2 6 10 9 9 7 6 5 5 5 4 5 5 6 7 7 8 7 7 7 7 7 7 7 6 7 7 7 8 8 9 9
4 5 5 5 6 6 3 4 5 6 4 5 6 9 10 10 10 7 5 4 4 4 3 3 4 5 6 7 8 7 7 8 8 9 8 8 8 8 7 8 8 8 8 9
4 6 6 6 7 5 3 6 3 4 5 6 8 11 13 12 8 6 8 6 4 3 2 2 2 4 5 6 7 7 8 8 9 9 9 9 9 9 8 9 9 8 8 9
8 7 9 9 8 5 5 6 6 7 2 8 9 11 13 11 2 7 9 6 5 3 2 1 1 2 4 5 6 7 8 9 9 8 9 9 9 9 9 9 8 8 8 8
8 8 9 8 9 5 8 8 7 2 5 7 8 10 10 6 5 7 8 6 5 4 3 2 0 1 2 4 5 6 7 8 8 8 8 9 9 9 8 9 8 8 8 8
7 5 3 6 1 5 6 4 1 2 4 6 7 8 8 7 7 7 7 6 5 5 4 2 1 1 2 3 4 6 6 7 8 8 9 9 10 8 9 9 9 8 7 7
5 3 5 5 5 5 5 4 4 4 4 4 6 7 8 8 8 7 6 6 6 5 4 3 3 3 3 3 4 5 6 7 9 9 10 9 9 9 9 7 7 7 7 7
4 7 6 7 4 4 7 8 7 6 5 5 6 7 8 8 8 7 6 6 6 5 5 4 4 4 5 5 5 6 7 8 9 10 9 10 9 9 9 9 7 8 8 8
8 9 8 6 6 6 5 6 7 7 7 7 7 7 8 8 8 8 7 6 6 6 5 5 6 6 6 6 7 6 7 8 9 9 9 8 8 8 9 9 9 7 9 11
Wind_Direction
173 188 182 175 183 115 173 175 154 130 133 194 201 262 43 94 172 201 195 201 209 212 200 193 197 197 196 197 198 191 184 177 172 175 205 227 242 255 254 314 348 333 341 347
171 182 160 154 173 192 183 164 143 126 128 193 140 103 80 73 77 68 192 184 197 199 191 189 198 197 198 195 197 195 190 182 182 183 197 225 298 289 316 274 260 306 331 343
156 124 153 174 178 178 164 154 138 131 143 163 159 114 94 86 87 78 58 42 90 195 199 188 195 197 198 198 201 198 190 184 183 175 176 190 206 236 221 233 258 301 317 330
124 136 168 175 175 183 131 105 143 160 174 130 172 119 91 85 87 70 58 49 47 55 145 190 195 193 202 201 200 200 189 190 183 181 198 219 248 279 303 300 292 268 278 307
128 157 170 168 144 187 90 116 142 159 157 139 133 128 104 92 77 57 46 40 37 39 41 54 204 201 196 191 192 197 188 188 185 197 197 222 237 264 275 271 273 280 288 294
109 149 193 105 103 138 137 145 136 166 184 133 78 128 108 74 47 42 44 42 38 37 46 53 67 135 165 177 182 188 187 190 189 200 208 221 235 242 252 257 277 275 274 276
138 147 154 170 152 161 203 191 166 168 168 120 98 127 95 67 40 29 33 41 43 41 44 48 52 71 129 170 182 187 190 193 195 205 216 219 231 245 252 264 263 279 290 290
146 139 154 185 228 165 192 242 223 170 152 135 161 131 100 73 61 55 55 51 48 44 41 40 39 40 73 159 183 196 198 201 201 210 219 224 226 240 252 255 269 272 289 309
150 123 117 127 268 239 173 171 346 119 135 149 136 125 119 105 83 63 57 51 45 42 40 41 42 39 43 96 178 201 204 208 207 213 218 221 229 234 240 244 254 266 271 283
178 135 130 140 155 65 0 118 206 203 171 155 149 158 144 122 72 62 54 48 43 41 40 39 40 40 41 51 110 191 211 218 214 217 219 222 229 229 237 247 249 261 268 266
237 165 149 171 206 141 157 165 145 128 254 198 165 136 77 90 73 67 61 51 45 42 38 37 37 39 43 49 57 116 203 225 226 226 224 228 229 233 231 239 244 254 260 250
280 230 156 127 79 351 303 219 234 218 150 252 184 113 88 98 92 82 73 62 54 49 46 44 42 41 42 38 36 19 335 245 244 244 236 237 236 234 238 237 242 247 254 257
198 227 177 162 166 172 159 123 227 225 185 204 211 125 122 122 110 99 88 77 69 60 54 51 46 41 36 29 25 26 356 322 272 255 252 248 245 244 247 246 242 249 250 251
270 239 252 238 105 159 169 166 196 222 224 213 216 150 160 157 137 121 105 90 79 68 57 50 45 41 34 29 19 21 11 352 317 270 263 262 259 255 257 256 250 248 247 247
260 238 201 83 93 195 205 195 202 230 249 252 224 196 184 166 153 137 121 104 87 71 59 50 44 40 36 30 23 21 15 5 342 309 288 285 283 275 270 265 256 254 252 250
259 219 189 181 171 224 237 226 221 231 241 241 227 216 151 145 149 144 132 115 96 77 63 52 44 39 33 29 23 23 21 14 3 345 322 313 298 288 276 270 264 257 254 254
200 218 228 221 177 243 245 233 222 219 219 222 227 190 149 159 157 150 137 126 105 88 71 55 43 35 28 26 23 24 21 19 16 6 351 337 318 303 290 280 270 262 258 254
225 212 228 239 215 239 96 85 198 204 209 217 207 146 163 155 146 142 141 134 118 102 83 63 47 38 29 25 24 22 22 21 18 12 1 349 332 315 302 288 275 266 262 256
252 215 220 231 236 253 186 171 182 196 197 188 176 156 153 145 150 153 152 145 126 112 91 70 43 34 30 23 15 13 18 17 14 8 357 348 338 326 315 302 290 280 271 264
192 229 229 219 234 241 135 133 163 218 197 163 170 161 160 167 189 168 161 162 149 137 113 80 51 35 29 18 7 7 11 10 7 357 348 344 338 331 323 315 305 294 279 269
176 195 219 224 237 251 113 139 175 213 139 152 172 170 173 190 202 122 150 162 162 159 152 141 62 34 22 4 357 2 6 6 358 348 342 341 339 332 327 322 316 305 292 282
191 189 201 210 225 216 137 165 200 79 99 155 172 177 184 180 135 142 158 167 175 177 178 187 201 14 8 354 347 354 1 354 345 340 337 336 335 333 332 326 319 314 305 290
216 218 210 219 221 76 162 177 105 123 159 164 176 179 181 177 174 173 178 183 190 195 195 205 244 294 323 338 339 341 347 339 334 332 333 331 330 332 331 327 322 318 313 303
187 198 225 234 226 200 198 207 199 199 191 179 183 185 187 192 190 192 195 199 204 209 212 221 243 269 295 316 319 320 326 324 324 326 327 327 327 329 327 324 320 320 317 312
189 185 214 233 224 210 213 211 206 200 200 193 191 195 200 200 201 203 208 211 213 215 219 228 247 270 285 295 302 309 314 315 316 316 317 320 323 322 318 316 315 311 308 308
200 201 207 229 211 213 204 196 199 207 209 205 202 205 207 206 207 211 217 215 218 224 230 239 253 266 280 290 296 305 308 307 307 310 314 314 314 315 313 311 307 289 275 278